Terminal Aerodrome Forecast
Issued by NWS Wakefield, VA

Home | Current Version | Previous Version | Text Only | Print | Product List | Glossary On
Versions: 1 2 3 4 5 6 7 8 9 10 11 12 13 14 15 16 17 18 19 20 21
474
FTUS41 KAKQ 241731
TAFSBY
TAF
KSBY 241731Z 2418/2518 30010KT P6SM SCT060
     FM250000 23003KT P6SM SCT070
     FM251200 27007KT P6SM SKC=

USA.gov is the U.S. government's official web portal to all federal, state and local government web resources and services.